Location: Tuscaloosa
(33.2100°N, 87.5400°W)
Time: 17:28:50
(UTC-05:00)

Daily predictions for brighter satellites

Satellite Brightness Start Highest point End
(mag) Time Altitude Azimuth Time Altitude Azimuth Time Altitude Azimuth
Lacrosse 5 1.9 19:02:35 10° NW 19:07:41 90° SW 19:12:44 10° SE
Cosmos 1825 Rocket 3.8 19:05:30 10° N 19:09:46 47° E 19:14:02 10° SSE
Cosmos 1814 Rocket 4.0 19:09:29 10° S 19:14:36 66° ESE 19:19:42 10° NNE
Cosmos 1898 Rocket 3.7 19:10:49 10° N 19:15:53 52° ENE 19:20:54 10° SSE
Cosmos 371 Rocket 3.9 19:12:40 10° SSW 19:17:29 64° WNW 19:22:21 10° N
SJ-6B 4.0 19:18:15 10° SE 19:21:34 25° ENE 19:24:49 10° NNE
SL-08 ROCKET BODY 4.5 19:18:09 10° SSE 19:23:46 52° E 19:29:29 10° NNE
USA 234 3.8 19:17:36 10° SSE 19:24:03 62° SW 19:30:33 10° NW
Cosmos 990 Rocket 4.5 19:20:32 10° N 19:25:20 39° ENE 19:30:07 10° SE
Cosmos 2181 Rocket 4.0 19:21:46 10° N 19:27:53 60° E 19:33:54 10° SSE
USA 81 4.3 19:25:48 10° N 19:30:54 48° E 19:35:58 10° SSE
GPS 2-04 Rocket1 3.9 19:28:19 10° W 19:32:19 39° SSW 19:36:21 10° SE
Cosmos 1943 Rocket 2.1 19:28:20 10° NNW 19:33:56 75° ENE 19:39:33 10° SSE
Geosat 4.0 19:29:32 10° SE 19:34:30 67° ENE 19:39:30 10° NNW
Cosmos 2150 Rocket 4.2 19:31:59 10° N 19:37:13 53° ENE 19:42:29 10° SSE
Cosmos 2074 Rocket 4.1 19:34:30 10° SSE 19:40:27 50° E 19:46:25 10° NNE
Cosmos 389 Rocket 4.0 19:37:49 10° SSW 19:41:09 39° W 19:44:28 10° N
Cosmos 1758 Rocket 3.6 19:37:21 10° N 19:41:52 86° E 19:46:22 10° S
Cosmos 1726 Rocket 4.0 19:39:20 10° SSW 19:43:40 65° W 19:48:00 10° N
H-2A R/B 2.6 19:43:26 10° SSE 19:47:04 59° ENE 19:50:44 10° N
OE (NEXTSAT) 4.3 19:49:33 10° NW 19:53:04 80° NE 19:54:41 30° ESE
ISS -2.0 19:51:10 10° S 19:52:33 17° SSE 19:52:33 17° SSE
Cosmos 841 Rocket 3.5 19:48:52 10° SSW 19:54:00 82° WNW 19:59:09 10° NNE
Meteor 2-5 Rocket 3.7 19:49:17 10° N 19:55:08 77° E 20:00:50 10° SSE
Meteor 1-22 Rocket 4.2 19:49:45 10° S 19:55:28 61° E 20:00:58 10° NNE
Cosmos 1937 Rocket 3.6 19:55:01 10° NNW 20:00:21 82° WSW 20:05:35 10° SSE
Cosmos 1766 3.2 19:57:38 10° S 20:01:32 61° E 20:05:24 10° NNE
Cosmos 2298 Rocket 4.2 19:56:23 10° NNW 20:01:44 78° WSW 20:07:02 10° S
USA 229 DEB 3.9 19:54:41 10° NNW 20:01:56 82° WSW 20:09:17 10° SSE
USA 229 3.9 19:54:48 10° NNW 20:02:02 82° WSW 20:09:23 10° SSE
OAO 3 Copernicus 4.3 19:57:54 10° W 20:02:58 80° N 20:05:38 28° ENE
COSMOS 2406 3.1 19:59:13 10° SSW 20:04:52 73° ESE 20:10:35 10° NNE
Resurs 01 Rocket 2.1 20:04:18 32° ESE 20:05:22 37° ENE 20:09:27 10° N
Cosmos 304 Rocket 4.1 20:01:08 10° SSW 20:05:53 66° WNW 20:10:39 10° N
ATLAS CENTAUR R/B 3.2 19:54:11 10° NW 20:06:04 55° NE 20:08:20 31° ESE
BREEZE-M DEB (TANK) 4.2 19:49:53 10° WSW 20:06:20 72° NW 20:10:17 15° NE
NOSS 3-1 (A) 4.5 19:59:07 10° NNW 20:06:31 45° NE 20:10:51 26° ESE
HJ-1C 3.3 20:05:22 15° S 20:08:02 84° WSW 20:11:23 10° NNW
Cosmos 482 Debris 3.2 20:05:22 10° NW 20:08:39 78° N 20:08:39 78° N
FengYun 1-2 T 4.4 20:03:40 10° S 20:09:17 79° WSW 20:14:54 10° NNW
Cosmos 1707 3.8 20:06:56 10° NNW 20:10:42 47° W 20:14:28 10° SSW
FALCON 9 R/B 1.7 20:08:31 10° W 20:11:31 75° N 20:14:19 30° E
Tiangong 2 4.1 20:11:19 10° WSW 20:12:16 11° SW 20:13:14 10° SSW
Centaur D AC-29 2.7 19:57:53 10° WSW 20:12:19 39° S 20:14:23 28° SE
Cosmos 1656 Rocket 3.6 20:06:48 10° NNW 20:12:25 67° ENE 20:15:35 26° SE
Cosmos 2184 Rocket 4.1 20:09:35 10° S 20:15:51 83° W 20:22:14 10° N
Cosmos 2369 Rocket 4.5 20:11:55 10° NW 20:16:19 24° W 20:20:41 10° SSW
Cosmos 2228 4.4 20:12:14 10° SSW 20:16:21 40° W 20:20:28 10° N
NOSS 3-1 (C) 4.1 20:08:35 10° NNW 20:16:23 67° ENE 20:21:37 26° SE
GP-B 3.4 20:12:17 10° NNE 20:16:18 42° E 20:16:18 42° E
BREEZE-M DEB (TANK) 4.3 20:15:56 10° SSW 20:16:45 15° SSW 20:16:45 15° SSW
Cosmos 540 Rocket 3.3 20:13:22 10° SSW 20:18:28 81° ESE 20:23:34 10° NNE
Cosmos 1812 Rocket 3.5 20:17:10 10° S 20:21:32 62° E 20:25:57 10° NNE
ALOS 4.5 20:18:49 10° SSW 20:22:39 26° W 20:26:33 10° NW
Cosmos 1610 Rocket 4.4 20:17:17 10° S 20:23:37 78° E 20:30:00 10° N
BREEZE-M (TANK) 3.0 20:14:52 10° NW 20:25:43 76° NE 20:26:38 53° ESE
Cosmos 1900 4.3 20:26:55 10° SSW 20:31:53 60° ESE 20:32:13 59° E
Milstar 3 Cent rocket 2.5 20:29:30 10° WSW 20:34:03 38° S 20:34:03 38° S
Cosmos 1544 3.8 20:31:07 10° SSW 20:34:38 51° W 20:38:10 10° N
Meteor 2-8 Rocket 4.3 20:29:03 10° N 20:35:11 80° E 20:38:41 27° SSE
In-Cosmos 22 4.1 20:30:05 10° N 20:35:48 88° E 20:39:02 28° S
Cosmos 1805 3.9 20:39:06 46° N 20:39:06 46° N 20:41:58 10° N
Spot 2 Rocket 3.3 20:38:58 61° SE 20:39:49 80° ENE 20:44:52 10° N
Meteor 2-19 Rocket 4.4 20:36:40 10° S 20:42:42 83° W 20:48:46 10° N
CZ-2D R/B 4.0 20:42:36 47° SW 20:43:03 50° W 20:46:46 10° NNW
Yuri Rocket 4.2 20:43:51 10° WSW 20:46:35 31° SW 20:46:35 31° SW
GEOS 3 Rocket 3.9 20:54:29 10° NNE 20:59:51 68° NW 21:05:09 10° SW
Cosmos 962 Rocket 4.4 20:58:46 48° S 21:00:42 86° E 21:07:06 10° N
Cosmos 1125 Rocket 3.8 21:03:18 10° NNW 21:07:53 64° NW 21:07:53 64° NW
Envisat 3.6 21:11:57 51° WSW 21:12:02 51° W 21:17:00 10° NNW
Resurs 01 Rocket 4.3 21:41:53 15° W 21:41:56 15° W 21:44:30 10° WNW
ATLAS 2AS CENTAUR R/B 4.0 21:41:17 10° NNW 21:46:19 33° NNE 21:46:19 33° NNE
